Wheeler Sack Army Air Field Fort Drum US
ICAO: KGTB
IATA: GTB
Category: Medium
Scheduled Services: No

Elevation: 688 ft
TransAlt. 18000 ft.

Airport Communications:
APP/DEP:128.25
ATIS:126.55
GND:121.9
FORT DRUM FLT FLW:141.025
BASE OPS:120.8
PMSV SACK METRO:63.3
TWR:118.75

KGTB Zoom In..

If you have problems with the map follow the link
https://www.worldairports.se/pages/airport.php?
ICAO=KGTB

Runways:

(A) RW 03 length 10000 ft width 150 ft
ILS 108.50 / hdg 29

(B) RW 08 length 4501 ft width 150 ft
---- / hdg 84

(C) RW 15 length 4998 ft width 150 ft
---- / hdg 147

(D) RW 21 length 10000 ft width 150 ft
ILS 108.50 / hdg 209

(E) RW 26 length 4501 ft width 150 ft
---- / hdg 264

(F) RW 33 length 4998 ft width 150 ft
---- / hdg 327

Location; KGTB
Day. 20 / Time. 20.56 Zulu
* Altimeter: 30.21
* Temperature: -03° c. -26.6°f.
* Wind from: 140° Speed 14 kn.
Dewpoint: -11° c.
Visibility: 10 Statute Miles.
Clouds: Overcast 8500 ft.

KGTB 202056Z AUTO 14014KT 10SM OVC085 M03/M11 A3021 RMK AO2 SLP243 T10301115 57050


Wind From 140°
Speed 14 kn.

 
 
jpsmedia.com for Web Design worldairports.se 2019   terms of use